KE0DYO Weather Reports


time (UTC)temp
F
wind
direction
speed
knots
gust
knots
rain 1hr
in
rain 24hr
in
rain mn
in
humidity
%
barometer
mb
20260502210031 60 360 2.6 5.2 0.00 0.00 0.00 39 1022.4
20260502204550 60 360 2.6 7.8 0.00 0.00 0.00 39 1022.5
20260502203006 60 360 0.9 3.5 0.00 0.00 0.00 39 1022.7
20260502201519 60 360 0.9 9.6 0.00 0.00 0.00 43 1022.8
20260502200030 61 360 2.6 12.2 0.00 0.00 0.00 41 1023.0
20260502194550 61 360 1.7 5.2 0.00 0.00 0.00 43 1023.1
20260502193118 60 360 0.0 7.0 0.00 0.00 0.00 40 1023.2
20260502193002 60 360 1.7 8.7 0.00 0.00 0.00 42 1023.2
20260502191515 59 360 4.3 9.6 0.00 0.00 0.00 41 1023.4
20260502190030 60 360 0.9 10.4 0.00 0.00 0.00 42 1023.5
20260502184543 59 360 3.5 8.7 0.00 0.00 0.00 46 1023.6
20260502183058 58 360 0.9 5.2 0.00 0.00 0.00 43 1023.9
20260502181513 58 360 0.0 5.2 0.00 0.00 0.00 45 1023.9
20260502163031 56 360 2.6 8.7 0.00 0.00 0.00 41 1024.5
20260502161542 55 360 2.6 8.7 0.00 0.00 0.00 48 1024.5
20260502160107 55 360 4.3 11.3 0.00 0.00 0.00 46 1024.5
20260502151539 53 360 4.3 11.3 0.00 0.00 0.00 55 1024.6
20260502123038 42 360 0.9 2.6 0.00 0.00 0.00 79 1023.8
20260502121549 41 360 0.9 1.7 0.00 0.00 0.00 80 1023.7
20260502114529 40 360 0.9 2.6 0.00 0.00 0.00 80 1023.3
20260502113036 40 360 0.9 1.7 0.00 0.00 0.00 80 1023.1
20260502111555 40 360 0.9 1.7 0.00 0.00 0.00 80 1023.0
20260502110009 40 360 0.9 1.7 0.00 0.00 0.00 79 1022.9
20260502104522 41 360 0.9 1.7 0.00 0.00 0.00 78 1022.9
20260502103029 42 360 0.9 2.6 0.00 0.00 0.00 77 1022.8
20260502101606 42 360 1.7 2.6 0.00 0.00 0.00 76 1022.7
20260502071516 46 360 0.9 2.6 0.00 0.00 0.00 63 1021.9
20260502070029 46 360 0.9 4.3 0.00 0.00 0.00 63 1021.9
20260502064610 47 360 1.7 2.6 0.00 0.00 0.00 61 1022.0
20260502063125 47 360 1.7 2.6 0.00 0.00 0.00 61 1022.0
20260502061510 48 360 0.9 2.6 0.00 0.00 0.00 60 1022.0
20260502060040 48 360 1.7 3.5 0.00 0.00 0.00 60 1022.0
20260502054540 48 360 1.7 2.6 0.00 0.00 0.00 58 1022.0
20260502053057 49 360 1.7 3.5 0.00 0.00 0.00 57 1021.9
20260502051509 49 360 1.7 3.5 0.00 0.00 0.00 56 1021.9
20260502050023 50 360 0.9 3.5 0.00 0.00 0.00 55 1021.9
20260502044526 50 360 1.7 3.5 0.00 0.00 0.00 54 1021.8
20260502043105 51 360 1.7 2.6 0.00 0.00 0.00 53 1021.8
20260502041602 52 360 1.7 4.3 0.00 0.00 0.00 50 1021.7
20260502040022 52 360 1.7 3.5 0.00 0.00 0.00 51 1021.5
20260502034528 52 360 1.7 6.1 0.00 0.00 0.00 51 1021.5
20260502033043 52 360 1.7 4.3 0.00 0.00 0.00 53 1021.4
20260502031556 53 360 0.9 2.6 0.00 0.00 0.00 53 1021.4
20260502030014 53 360 0.9 2.6 0.00 0.00 0.00 53 1021.1
20260502024526 54 360 0.9 2.6 0.00 0.00 0.00 51 1021.0
20260502023042 55 360 0.9 2.6 0.00 0.00 0.00 51 1020.7
20260502021554 55 360 0.9 3.5 0.00 0.00 0.00 49 1020.5
20260502020014 56 360 0.9 2.6 0.00 0.00 0.00 49 1020.3
20260502014524 56 360 0.9 5.2 0.00 0.00 0.00 48 1020.0
20260502013034 57 360 1.7 3.5 0.00 0.00 0.00 48 1019.8
20260502011544 57 360 1.7 4.3 0.00 0.00 0.00 46 1019.6
20260502010015 58 360 1.7 4.3 0.00 0.00 0.00 45 1019.4
20260502004525 59 360 1.7 5.2 0.00 0.00 0.00 44 1019.2
20260502003031 60 360 1.7 4.3 0.00 0.00 0.00 42 1019.0
20260502001548 60 360 3.5 9.6 0.00 0.00 0.00 40 1018.9
20260502000004 61 360 3.5 7.0 0.00 0.00 0.00 39 1018.7
20260501234516 61 360 5.2 13.9 0.00 0.00 0.00 38 1018.5
20260501233026 62 360 2.6 7.0 0.00 0.00 0.00 38 1018.5
20260501231548 62 360 3.5 8.7 0.00 0.00 0.00 37 1018.6
20260501230002 62 360 2.6 8.7 0.00 0.00 0.00 39 1018.6
20260501224532 62 360 4.3 8.7 0.00 0.00 0.00 36 1018.7
20260501223044 62 360 2.6 8.7 0.00 0.00 0.00 39 1018.6
20260501221502 63 360 2.6 14.8 0.00 0.00 0.00 38 1018.7
20260501220024 63 360 1.7 7.0 0.00 0.00 0.00 39 1018.8
20260501214548 63 360 3.5 8.7 0.00 0.00 0.00 38 1018.7
20260501213109 63 360 1.7 6.1 0.00 0.00 0.00 43 1018.9
20260501213002 63 360 2.6 6.1 0.00 0.00 0.00 42 1019.0
20260501211520 62 360 0.9 4.3 0.00 0.00 0.00 47 1019.4